Location: Dreilärchen
(47.9312°N, 8.6113°E)
Time: 20:06:26
(UTC+00:00)

Cosmos 1606 Rocket - Pass Details

Date: 26 May 2022
Orbit: 601 x 632 km, 82.5° (Epoch: 02 July)

Event Time Altitude Azimuth Distance (km) Brightness Sun altitude
Rises 02:26:58 0° 348° (NNW) 2,920 7.6 -9.6°
Reaches altitude 10° 02:29:13 10° 346° (NNW) 2,003 6.6 -9.3°
Maximum altitude 02:33:38 70° 264° (W) 662 3.5 -8.8°
Drops below altitude 10° 02:37:58 10° 181° (S) 1,967 5.7 -8.3°
Sets 02:40:10 0° 179° (S) 2,862 6.6 -8.0°
Enters shadow 02:40:15 - 179° (S) 2,900 6.6 -8.0°
